Canadian, TX

1:07 AM CDT on September 20, 2017 (GMT -0500)
Hemphill County

Weather History for KHHF - January, 2013

Change the Weather History Date:

Friday, January 18, 2013

  Actual Average (KPPA) Record (KPPA)
Temperature  
Mean Temperature 48 °F -  
Max Temperature 62 °F 49 °F 70 °F (2015)
Min Temperature 33 °F 22 °F -2 °F (1984)
Degree Days  
Heating Degree Days 18    
Moisture  
Dew Point 30 °F    
Average Humidity 56    
Maximum Humidity 81    
Minimum Humidity 27    
Precipitation  
Precipitation 0.00 in - - ()
Sea Level Pressure  
Sea Level Pressure 30.23 in    
Wind  
Wind Speed 11 mph (SW)    
Max Wind Speed 28 mph    
Max Gust Speed 36 mph    
Visibility 10 miles    
Events      
Averages and records for this station are not official NWS values.
T = Trace of Precipitation, MM = Missing Value Source: NWS Daily Summary

Daily Weather History Graph

Daily Weather History Graph

Search for Another Location

Airport or City:

Trip Planner

Search our weather history database for the weather conditions in past years. The results will help you decide how hot, cold, wet, or windy it might be!

Date:

Astronomy

Jan. 18, 2013 Rise Set
Actual Time 7:50 AM CST 5:54 PM CST
Civil Twilight 7:22 AM CST 6:22 PM CST
Nautical Twilight 6:51 AM CST 6:53 PM CST
Astronomical Twilight 6:20 AM CST 7:24 PM CST
Moon 11:45 AM CST (1/18) 12:31 AM CST (1/18)
Length of Visible Light 10h 59m
Length of Day
10h 04m
Waxing Crescent, 47% of the Moon is Illuminated
Jan 18
Waxing Crescent
Jan 18
First Quarter
Jan 26
Full
Feb 3
Last Quarter
Feb 10
New

Hourly Weather History & Observations

Time (CST) Temp. Windchill Dew Point Humidity Pressure Visibility Wind Dir Wind Speed Gust Speed Precip Events Conditions
12:15 AM 35.6 °F 28.6 °F 28.4 °F 75% 30.40 in 10.0 mi SW 9.2 mph - N/A   Clear
12:35 AM 35.6 °F 28.6 °F 28.4 °F 75% 30.40 in 10.0 mi SW 9.2 mph - N/A   Clear
12:55 AM 35.6 °F 29.2 °F 30.2 °F 81% 30.40 in 10.0 mi WSW 8.1 mph - N/A   Clear
1:15 AM 37.4 °F 32.8 °F 30.2 °F 75% 30.40 in 10.0 mi WSW 5.8 mph - N/A   Clear
1:35 AM 37.4 °F 32.8 °F 30.2 °F 75% 30.39 in 10.0 mi WSW 5.8 mph - N/A   Clear
1:55 AM 37.4 °F 32.1 °F 30.2 °F 75% 30.39 in 10.0 mi WSW 6.9 mph - N/A   Clear
2:15 AM 37.4 °F 32.8 °F 28.4 °F 70% 30.39 in 10.0 mi WSW 5.8 mph - N/A   Clear
2:35 AM 37.4 °F 31.4 °F 30.2 °F 75% 30.39 in 10.0 mi WSW 8.1 mph - N/A   Clear
2:55 AM 37.4 °F 30.8 °F 30.2 °F 75% 30.38 in 10.0 mi SW 9.2 mph - N/A   Clear
3:15 AM 37.4 °F 30.3 °F 30.2 °F 75% 30.37 in 10.0 mi SW 10.4 mph - N/A   Clear
3:35 AM 37.4 °F 30.3 °F 30.2 °F 75% 30.36 in 10.0 mi SW 10.4 mph - N/A   Clear
3:55 AM 37.4 °F 29.8 °F 30.2 °F 75% 30.36 in 10.0 mi SW 11.5 mph - N/A   Clear
4:15 AM 37.4 °F 30.8 °F 30.2 °F 75% 30.35 in 10.0 mi SW 9.2 mph - N/A   Clear
4:35 AM 37.4 °F 31.4 °F 30.2 °F 75% 30.35 in 10.0 mi WSW 8.1 mph - N/A   Clear
4:55 AM 35.6 °F 29.9 °F 30.2 °F 81% 30.34 in 10.0 mi SW 6.9 mph - N/A   Clear
5:15 AM 35.6 °F 30.7 °F 30.2 °F 81% 30.33 in 10.0 mi SW 5.8 mph - N/A   Clear
5:35 AM 35.6 °F 29.9 °F 28.4 °F 75% 30.33 in 10.0 mi WSW 6.9 mph - N/A   Clear
5:55 AM 35.6 °F 31.7 °F 28.4 °F 75% 30.33 in 10.0 mi SW 4.6 mph - N/A   Clear
6:15 AM 33.8 °F 27.0 °F 28.4 °F 81% 30.32 in 10.0 mi SW 8.1 mph - N/A   Clear
6:35 AM 35.6 °F 28.0 °F 30.2 °F 81% 30.31 in 10.0 mi SSW 10.4 mph - N/A   Clear
6:55 AM 35.6 °F 29.2 °F 28.4 °F 75% 30.31 in 10.0 mi SW 8.1 mph - N/A   Clear
7:15 AM 33.8 °F 27.7 °F 28.4 °F 81% 30.31 in 10.0 mi SW 6.9 mph - N/A   Clear
7:35 AM 35.6 °F 30.7 °F 28.4 °F 75% 30.31 in 10.0 mi WSW 5.8 mph - N/A   Clear
7:55 AM 35.6 °F - 28.4 °F 75% 30.31 in 10.0 mi Calm Calm - N/A   Clear
8:15 AM 33.8 °F - 28.4 °F 81% 30.31 in 10.0 mi Calm Calm - N/A   Clear
8:35 AM 37.4 °F 32.8 °F 30.2 °F 75% 30.31 in 10.0 mi SW 5.8 mph - N/A   Clear
8:55 AM 41.0 °F 37.1 °F 30.2 °F 65% 30.31 in 10.0 mi WSW 5.8 mph - N/A   Clear
9:15 AM 42.8 °F 37.0 °F 30.2 °F 61% 30.31 in 10.0 mi WSW 10.4 mph 20.7 mph N/A   Clear
9:35 AM 44.6 °F 38.8 °F 30.2 °F 57% 30.31 in 10.0 mi WSW 11.5 mph 18.4 mph N/A   Clear
9:55 AM 46.4 °F 39.2 °F 30.2 °F 53% 30.31 in 10.0 mi SW 18.4 mph 23.0 mph N/A   Clear
10:15 AM 48.2 °F - 30.2 °F 50% 30.31 in 10.0 mi SW 15.0 mph 26.5 mph N/A   Clear
10:35 AM 50.0 °F - 30.2 °F 47% 30.31 in 10.0 mi SW 23.0 mph 27.6 mph N/A   Clear
10:55 AM 51.8 °F - 30.2 °F 44% 30.30 in 10.0 mi SW 21.9 mph 27.6 mph N/A   Clear
11:15 AM 53.6 °F - 30.2 °F 41% 30.29 in 10.0 mi SW 23.0 mph 28.8 mph N/A   Clear
11:35 AM 55.4 °F - 30.2 °F 38% 30.27 in 10.0 mi SW 21.9 mph 28.8 mph N/A   Clear
11:55 AM 55.4 °F - 30.2 °F 38% 30.26 in 10.0 mi SW 24.2 mph 28.8 mph N/A   Clear
12:15 PM 55.4 °F - 30.2 °F 38% 30.25 in 10.0 mi SW 20.7 mph 31.1 mph N/A   Clear
12:35 PM 59.0 °F - 30.2 °F 34% 30.23 in 10.0 mi SW 24.2 mph 29.9 mph N/A   Clear
12:55 PM 59.0 °F - 30.2 °F 34% 30.21 in 10.0 mi SW 24.2 mph 27.6 mph N/A   Clear
1:15 PM 59.0 °F - 30.2 °F 34% 30.19 in 10.0 mi SW 23.0 mph 34.5 mph N/A   Clear
1:35 PM 60.8 °F - 30.2 °F 31% 30.18 in 10.0 mi WSW 23.0 mph 32.2 mph N/A   Clear
1:55 PM 60.8 °F - 28.4 °F 29% 30.16 in 10.0 mi SW 27.6 mph 35.7 mph N/A   Clear
2:15 PM 60.8 °F - 30.2 °F 31% 30.14 in 10.0 mi SW 21.9 mph 29.9 mph N/A   Clear
2:35 PM 60.8 °F - 30.2 °F 31% 30.14 in 10.0 mi SW 21.9 mph 32.2 mph N/A   Clear
2:55 PM 62.6 °F - 28.4 °F 27% 30.13 in 10.0 mi SW 25.3 mph 32.2 mph N/A   Clear
3:15 PM 62.6 °F - 28.4 °F 27% 30.13 in 10.0 mi SW 23.0 mph 31.1 mph N/A   Clear
3:35 PM 62.6 °F - 28.4 °F 27% 30.12 in 10.0 mi SW 20.7 mph 25.3 mph N/A   Clear
3:55 PM 62.6 °F - 28.4 °F 27% 30.12 in 10.0 mi SW 21.9 mph - N/A   Clear
4:15 PM 62.6 °F - 28.4 °F 27% 30.12 in 10.0 mi SW 17.3 mph 29.9 mph N/A   Clear
4:35 PM 62.6 °F - 28.4 °F 27% 30.12 in 10.0 mi SW 18.4 mph 24.2 mph N/A   Clear
4:55 PM 60.8 °F - 28.4 °F 29% 30.12 in 10.0 mi SW 15.0 mph 21.9 mph N/A   Clear
5:15 PM 60.8 °F - 28.4 °F 29% 30.12 in 10.0 mi SW 15.0 mph - N/A   Clear
5:35 PM 59.0 °F - 30.2 °F 34% 30.12 in 10.0 mi SSW 11.5 mph - N/A   Clear
5:55 PM 55.4 °F - 30.2 °F 38% 30.11 in 10.0 mi SSW 13.8 mph - N/A   Clear
6:15 PM 53.6 °F - 30.2 °F 41% 30.11 in 10.0 mi SSW 11.5 mph - N/A   Clear
6:35 PM 51.8 °F - 30.2 °F 44% 30.12 in 10.0 mi SSW 10.4 mph - N/A   Clear
6:55 PM 51.8 °F - 30.2 °F 44% 30.11 in 10.0 mi SSW 15.0 mph - N/A   Clear
7:15 PM 51.8 °F - 30.2 °F 44% 30.11 in 10.0 mi SSW 13.8 mph - N/A   Clear
7:35 PM 50.0 °F - 30.2 °F 47% 30.11 in 10.0 mi SW 10.4 mph - N/A   Clear
7:55 PM 44.6 °F 40.2 °F 32.0 °F 61% 30.12 in 10.0 mi WSW 8.1 mph - N/A   Clear
8:15 PM 44.6 °F 40.2 °F 32.0 °F 61% 30.11 in 10.0 mi SW 8.1 mph - N/A   Clear
8:35 PM 46.4 °F 42.4 °F 32.0 °F 57% 30.12 in 10.0 mi SW 8.1 mph - N/A   Clear
8:55 PM 48.2 °F - 32.0 °F 54% 30.12 in 10.0 mi SW 6.9 mph - N/A   Clear
9:15 PM 46.4 °F 41.9 °F 32.0 °F 57% 30.11 in 10.0 mi SSW 9.2 mph - N/A   Clear
9:35 PM 42.8 °F - 30.2 °F 61% 30.11 in 10.0 mi Calm Calm - N/A   Clear
9:55 PM 44.6 °F 43.1 °F 30.2 °F 57% 30.11 in 10.0 mi West 3.5 mph - N/A   Clear
10:15 PM 44.6 °F 43.1 °F 30.2 °F 57% 30.11 in 10.0 mi WSW 3.5 mph - N/A   Clear
10:35 PM 44.6 °F 43.1 °F 30.2 °F 57% 30.10 in 10.0 mi West 3.5 mph - N/A   Clear
10:55 PM 44.6 °F 41.4 °F 30.2 °F 57% 30.10 in 10.0 mi SW 5.8 mph - N/A   Clear
11:15 PM 42.8 °F 38.6 °F 30.2 °F 61% 30.09 in 10.0 mi SW 6.9 mph - N/A   Clear
11:35 PM 42.8 °F 40.1 °F 30.2 °F 61% 30.09 in 10.0 mi SSW 4.6 mph - N/A   Clear
11:55 PM 41.0 °F 35.8 °F 30.2 °F 65% 30.08 in 10.0 mi SSW 8.1 mph - N/A   Clear